SCP
0 0 0 0 -0 -0 -0 0 0 0 0 0 0 0 0 0 0 0 0 -0 -0 0 0 0 0 0 0 0 0 0 0 0 0 0 0 0 0 0 0 0 0 0 0 0
0 0 0 0 0 -0 -0 0 0 -0 0 0 0 0 0 0 -0 0 0 0 0 0 0 0 0 0 0 0 0 0 0 0 0 0 0 0 0 0 0 0 0 0 0 0
0 0 0 0 0 0 -0 0 0 0 0 0 0 0 0 0 0 -0 0 0 0 0 0 0 0 0 0 0 0 0 0 0 0 0 0 0 0 0 0 0 0 0 0 0
0 0 0 0 -0 -0 0 0 0 0 0 0 0 0 0 0 0 0 0 0 0 0 0 0 0 0 0 0 0 0 0 0 0 0 0 0 0 0 0 0 0 0 0 0
0 0 0 -0 -0 -0 0 0 0 0 0 0 0 0 0 0 0 0 0 0 0 0 0 0 0 0 0 0 0 0 0 0 0 0 0 0 0 0 0 0 0 0 0 0
0 0 0 0 0 0 0 0 0 0 0 0 0 0 0 0 0 0 0 0 0 0 0 0 0 0 0 0 0 0 0 0 0 0 0 0 0 0 0 0 0 0 0 0
0 0 0 -0 0 0 0 0 0 0 0 0 0 0 0 0 0 0 0 0 0 0 0 0 0 0 0 0 0 0 0 0 0 0 0 0 0 0 0 0 0 0 0 0
-0 -0 -0 -0 0 0 0 0 0 0 0 0 0 0 0 0 0 0 0 0 0 0 0 0 0 0 0 0 0 0 0 0 0 0 0 0 0 0 0 0 0 0 0 0
-0 -0 -0 -0 -0 0 0 0 0 0 0 0 -0 0 0 0 0 0 0 0 0 0 0 0 0 0 0 0 0 0 0 0 0 0 0 0 0 0 0 0 0 0 0 0
-0 -0 -0 -0 -0 -0 0 0 0 0 0 0 -0 0 0 0 0 0 0 0 0 0 0 0 0 0 0 0 0 0 0 0 0 0 0 0 0 0 0 0 0 0 0 0
-0 -0 -0 -0 -0 -0 0 0 0 0 0 -0 0 -0 0 0 0 0 0 0 0 0 0 0 0 0 0 0 0 0 0 0 0 0 0 0 0 0 0 0 0 0 0 0
-0 -0 -0 -0 -0 -0 0 0 0 -0 -0 0 -0 -0 -0 0 0 0 0 0 0 0 0 0 0 0 0 0 0 0 0 0 0 0 0 0 0 0 0 0 0 0 0 0
-0 -0 -0 -0 -0 -0 0 0 -0 -0 0 -0 0 0 0 -0 0 0 0 0 0 0 0 0 0 0 0 0 0 0 0 0 0 0 0 0 0 0 0 -0 0 0 0 0
-0 -0 -0 -0 -0 0 -0 -0 0 -0 -0 0 0 0 0 0 0 0 0 0 0 0 0 0 0 0 0 0 0 0 -0 0 0 0 0 0 0 0 0 0 0 0 0 0
-0 -0 -0 -0 -0 -0 -0 -0 0 -0 0 -0 0 0 -0 0 0 -0 -0 -0 0 0 0 0 0 0 0 0 0 0 0 0 0 0 0 0 0 0 0 0 0 0 0 0
-0 -0 -0 -0 -0 -0 0 0 0 -0 0 0 0 -0 0 -0 0 -0 0 -0 0 0 0 -0 0 -0 0 0 0 0 0 0 0 0 0 0 0 0 0 0 0 0 0 0
-0 -0 -0 -0 -0 0 0 0 0 -0 0 0 0 -0 0 -0 -0 0 0 -0 0 0 0 0 0 -0 0 0 0 0 0 0 0 0 0 0 0 0 0 0 0 0 0 0
-0 -0 -0 0 0 0 0 0 0 0 0 0 0 0 0 0 -0 0 0 0 0 0 0 0 0 0 0 0 0 0 0 0 0 0 0 0 0 0 0 0 0 0 0 0
-0 -0 -0 0 0 0 -0 -0 -0 0 0 0 0 0 0 0 0 0 0 0 0 0 0 0 0 0 0 0 0 0 0 0 0 0 0 0 0 0 0 0 0 0 0 0
-0 0 0 0 0 0 0 0 0 0 0 0 0 0 0 0 0 0 0 0 0 0 0 0 0 0 0 0 0 0 0 0 0 0 0 0 0 0 0 0 0 0 0 0
-0 -0 0 -0 0 0 0 0 0 0 0 0 0 0 0 0 0 0 0 0 0 0 0 0 0 0 0 0 0 0 0 0 0 0 0 0 0 0 0 0 0 0 0 0
-0 -0 -0 0 0 0 0 0 0 0 0 0 0 0 0 0 0 0 0 0 0 0 0 0 0 0 0 0 0 0 0 0 0 0 0 0 0 0 0 0 0 -0 0 0
0 0 0 0 0 0 0 0 0 0 0 0 0 0 0 0 -0 0 0 0 0 0 0 0 0 0 0 0 0 0 0 0 0 0 0 0 0 0 0 0 0 0 0 0
-0 0 0 0 0 0 0 0 0 0 0 0 0 0 0 0 0 0 0 0 0 0 0 0 0 0 0 0 0 0 0 0 0 0 0 0 0 0 0 0 0 0 0 -0
0 0 0 0 -0 0 0 0 0 0 0 0 0 0 0 0 0 0 0 0 0 0 0 0 0 0 0 0 0 0 0 0 0 0 0 0 0 0 0 -0 -0 -0 -0 -0
0 0 0 0 0 0 0 0 0 0 0 0 0 0 0 0 0 0 0 0 0 0 0 0 0 0 0 0 0 0 0 0 0 0 0 0 0 0 0 -0 -0 -0 -0 -0
0 0 0 0 0 0 0 0 0 0 0 0 0 0 0 0 0 0 0 0 0 0 0 0 0 0 0 0 0 0 0 0 0 0 0 0 0 0 0 0 -0 -0 -0 -0
Wind_Speed_500mb
71 71 71 70 76 76 66 24 7 11 24 5 11 11 22 45 40 12 17 24 33 13 15 12 14 1 9 30 21 11 4 7 1 11 14 13 18 10 10 9 12 2 3 10
69 68 68 66 64 75 72 47 13 17 12 7 10 15 27 22 19 19 6 8 22 12 4 5 9 9 20 26 14 6 5 3 5 16 16 11 8 7 5 2 6 6 4 9
67 67 65 66 57 58 50 15 8 19 21 22 12 14 14 19 13 4 5 4 18 11 5 7 5 10 9 26 17 23 17 5 8 11 8 6 11 11 11 12 5 9 12 10
65 64 65 66 60 48 27 10 9 20 9 15 26 17 10 16 20 13 15 10 18 28 5 2 3 9 13 20 29 9 11 7 3 8 12 27 22 21 20 13 19 17 21 20
60 59 60 63 62 48 23 15 15 18 28 29 17 16 14 16 13 18 8 9 28 10 9 12 7 12 12 2 5 8 4 5 5 11 16 21 28 24 21 24 24 17 15 17
53 54 52 54 59 57 21 30 19 18 22 12 14 13 16 17 16 16 28 5 9 19 14 11 27 25 13 5 3 8 14 11 9 14 19 19 17 10 13 16 19 10 13 19
50 48 49 45 49 53 49 35 20 14 10 15 19 24 24 21 13 10 21 28 10 14 18 21 22 28 20 23 23 24 13 12 9 9 10 17 10 28 17 9 28 30 20 32
52 50 46 44 41 44 49 41 8 14 11 24 25 29 21 34 30 14 23 17 11 16 8 5 6 6 8 12 12 16 11 8 4 6 2 10 11 16 15 25 12 31 27 30
53 51 44 41 41 42 44 24 7 17 16 5 39 23 27 8 12 14 35 31 26 22 5 4 6 6 9 7 8 13 19 10 9 5 7 10 8 30 47 25 6 30 36 34
52 46 41 38 39 39 42 20 4 5 14 19 44 15 15 32 29 7 8 30 9 14 4 6 6 8 6 7 7 8 6 8 4 2 4 3 10 36 34 7 6 33 28 25
48 43 40 37 37 38 35 18 13 11 12 31 21 24 26 25 30 7 27 19 19 11 10 7 8 9 6 8 15 8 8 5 3 2 7 7 13 7 6 2 15 20 30 30
43 41 37 37 37 37 37 27 7 8 24 22 23 5 11 16 16 15 14 12 24 17 8 8 7 4 8 8 5 11 5 5 3 1 5 5 6 4 5 13 22 25 28 37
38 37 36 38 38 36 38 39 10 13 12 27 16 10 7 12 13 20 9 16 16 10 7 5 5 12 7 7 7 6 4 11 4 7 9 16 15 4 12 30 41 41 42 41
36 38 38 38 35 36 40 28 12 9 13 8 5 6 3 7 8 13 12 13 17 11 15 12 7 6 18 5 8 7 8 5 11 10 17 31 10 38 42 47 41 44 43 48
42 39 37 29 28 30 18 4 14 14 5 12 23 24 4 6 7 9 12 16 18 10 9 7 4 7 6 7 7 5 9 4 6 5 28 24 37 50 52 47 42 44 51 54
41 34 29 25 19 3 6 12 9 12 6 7 6 2 37 29 4 5 11 17 15 5 13 11 10 5 5 5 4 4 32 32 33 14 38 44 52 52 59 66 62 61 51 46
35 28 23 14 6 12 3 2 5 9 10 6 1 15 10 7 39 13 3 11 15 15 11 13 14 8 12 5 3 25 33 30 29 39 53 45 48 61 63 63 59 57 64 65
24 16 14 17 15 9 10 6 5 7 5 10 4 6 10 13 25 2 9 4 10 7 8 15 10 16 8 5 21 28 28 26 27 40 41 43 55 62 65 61 54 49 51 54
12 9 9 8 6 5 7 8 12 15 9 10 4 2 2 8 15 10 7 5 4 2 8 5 6 6 8 11 20 28 28 21 26 40 45 58 53 59 62 68 65 44 43 39
7 9 5 1 7 11 9 4 3 7 2 7 7 13 3 3 7 6 4 3 5 5 2 5 6 6 14 18 21 19 23 22 31 49 55 62 60 59 60 58 59 43 41 47
3 4 7 9 13 3 2 5 7 5 3 4 12 21 3 3 4 3 5 3 2 5 2 2 5 5 4 14 22 22 19 22 29 34 36 43 48 50 55 59 53 46 44 27
16 12 12 5 1 9 5 6 7 9 5 12 10 4 7 4 2 2 3 5 1 4 7 3 5 5 12 17 21 25 18 21 28 31 38 42 49 50 52 58 57 59 57 53
11 8 7 6 8 4 5 3 3 1 4 3 11 4 3 4 6 7 1 2 3 14 5 5 5 14 15 15 17 14 17 19 25 27 31 38 44 46 49 50 59 63 61 64
4 8 11 7 6 6 6 9 6 3 11 13 12 6 1 3 5 1 5 3 2 2 4 6 5 10 19 16 15 9 17 19 22 26 27 34 36 39 44 49 45 51 61 64
8 10 6 7 10 8 15 15 16 13 15 16 9 4 1 3 3 4 6 3 3 4 5 6 21 18 14 11 9 11 12 16 19 22 25 26 30 41 44 45 53 60 58 59
7 11 10 17 10 7 7 7 18 14 15 13 7 3 5 2 3 4 6 4 2 5 10 29 25 20 15 14 11 12 12 14 16 18 21 24 28 32 40 47 51 54 59 64
8 12 18 30 30 10 8 15 15 12 13 4 1 4 6 3 5 6 4 1 9 35 36 27 19 17 16 13 13 12 11 13 16 18 20 21 27 31 29 31 34 38 46 51
Wind_Direction_500mb
342 342 343 348 344 340 344 1 308 201 172 150 217 225 246 263 280 203 176 239 214 231 295 337 351 121 72 58 122 102 75 111 66 248 300 310 207 164 121 111 300 339 186 288
343 344 342 345 352 348 339 331 273 190 197 247 265 264 258 301 23 18 122 284 294 279 338 341 307 4 97 81 63 71 37 54 36 337 332 321 26 46 28 136 139 215 184 255
343 345 344 343 347 350 334 320 321 350 338 9 7 1 342 336 344 88 75 296 326 302 282 250 2 339 114 123 114 122 101 112 149 191 252 300 298 275 237 192 163 233 226 255
339 343 345 346 349 354 357 358 345 18 329 341 317 297 313 307 307 294 64 9 297 306 264 165 280 297 278 109 143 84 102 167 248 287 292 304 298 301 302 234 221 221 244 235
334 338 342 350 355 3 50 24 358 334 298 298 309 303 259 281 360 11 49 47 292 301 36 17 322 52 24 24 283 107 85 187 214 274 277 279 285 286 280 282 288 277 254 249
333 337 338 348 357 6 15 347 332 313 287 311 312 342 340 5 8 337 337 350 341 25 358 337 332 335 164 153 172 176 145 170 186 239 246 268 278 272 290 331 24 13 48 353
335 334 339 342 350 1 356 350 336 295 303 318 341 6 12 351 359 339 326 316 2 22 0 359 347 329 318 192 253 169 173 200 190 226 261 263 290 14 8 22 45 23 13 17
337 332 336 341 339 345 353 351 313 317 315 324 341 357 335 332 351 331 244 103 84 360 32 55 340 298 286 285 278 45 62 120 100 99 341 302 331 10 2 339 43 18 7 7
338 338 339 337 338 338 349 3 20 291 293 279 325 354 2 348 356 342 24 26 30 36 4 42 225 240 271 249 108 67 54 39 115 141 143 232 353 340 338 332 245 9 6 7
342 342 340 334 337 337 344 352 323 351 293 291 343 7 6 6 6 330 35 343 331 33 346 307 262 268 287 297 129 300 348 31 308 79 180 153 352 320 306 256 294 344 352 356
340 339 340 334 335 337 342 26 36 284 295 291 338 12 17 6 11 10 331 345 6 6 26 24 356 33 12 80 47 11 54 328 352 276 250 228 332 360 11 239 310 310 313 318
336 340 336 334 332 330 330 337 276 222 255 255 321 345 25 24 17 3 347 57 23 18 30 14 4 312 22 63 72 39 58 14 328 42 280 164 258 214 324 308 291 301 302 316
335 333 328 330 327 322 322 327 326 221 271 311 276 283 142 25 15 26 24 34 16 8 12 299 349 83 339 30 54 153 98 357 21 319 52 339 180 252 336 325 297 298 302 299
338 328 326 323 321 320 317 313 163 167 307 274 77 123 123 63 9 40 49 37 6 329 37 63 51 60 19 70 127 97 214 2 324 298 15 353 348 326 325 321 302 302 302 304
334 327 324 322 319 321 334 76 164 122 55 341 313 350 113 92 85 36 70 15 353 328 106 66 41 69 57 102 98 41 349 45 36 273 344 323 319 325 325 321 322 316 309 302
333 331 325 317 315 7 64 50 81 134 71 298 291 243 244 284 211 65 46 37 35 348 92 120 92 90 65 74 85 17 50 27 8 338 354 338 329 322 313 313 309 302 300 300
339 338 333 328 171 139 2 134 158 163 190 245 208 330 301 229 241 156 93 81 50 37 119 76 120 113 95 78 97 43 28 19 17 350 341 337 329 320 316 315 307 296 282 286
352 16 58 94 104 71 30 33 187 188 249 255 124 222 302 336 350 315 156 101 144 32 134 90 84 139 109 75 52 36 27 7 358 354 347 328 323 327 332 331 318 304 296 292
22 44 90 112 30 27 276 320 309 290 260 310 303 192 222 316 225 175 117 30 78 310 62 75 53 46 57 46 39 57 36 27 352 347 350 350 348 346 346 351 343 316 308 297
322 354 9 182 226 302 319 327 1 10 267 291 264 320 250 13 283 77 72 351 165 112 107 128 87 92 83 59 81 53 29 21 2 3 359 355 349 356 360 355 357 354 323 313
290 253 269 282 297 290 248 245 158 253 257 269 267 271 15 228 28 114 195 212 94 87 131 98 150 83 72 65 75 43 29 20 5 16 19 17 15 10 13 16 20 28 25 13
343 304 294 304 231 232 242 148 197 214 198 191 247 114 9 134 125 20 322 165 161 120 178 157 89 103 59 81 58 32 20 15 7 16 26 27 30 28 31 34 36 40 49 56
337 342 325 228 240 13 244 34 59 340 222 95 29 181 192 87 243 172 337 180 97 147 202 86 84 74 78 71 40 22 17 11 13 24 26 33 33 32 37 40 43 46 49 54
355 262 307 219 235 238 194 119 144 53 34 359 343 15 254 50 56 5 336 112 195 343 22 81 133 87 94 64 36 19 11 18 24 31 35 32 31 37 45 46 50 55 51 52
271 272 247 242 293 19 95 94 83 32 22 4 1 41 228 175 184 97 49 266 56 61 77 117 119 113 92 80 23 16 23 33 38 38 50 42 42 48 52 54 56 58 59 57
246 243 272 302 305 134 42 102 76 25 358 343 266 213 71 4 349 219 64 71 299 81 102 126 129 115 105 91 52 61 60 57 45 50 59 58 56 56 55 55 55 54 52 52
249 244 265 270 250 224 6 70 59 26 331 273 284 61 50 270 324 64 93 118 116 124 116 130 134 127 108 90 96 86 71 60 74 79 73 60 61 52 41 41 50 53 53 49
Wind_Speed_850mb
71 71 71 70 76 76 66 24 7 11 24 5 11 11 22 45 40 12 17 24 33 13 15 12 14 1 9 30 21 11 4 7 1 11 14 13 18 10 10 9 12 2 3 10
69 68 68 66 64 75 72 47 13 17 12 7 10 15 27 22 19 19 6 8 22 12 4 5 9 9 20 26 14 6 5 3 5 16 16 11 8 7 5 2 6 6 4 9
67 67 65 66 57 58 50 15 8 19 21 22 12 14 14 19 13 4 5 4 18 11 5 7 5 10 9 26 17 23 17 5 8 11 8 6 11 11 11 12 5 9 12 10
65 64 65 66 60 48 27 10 9 20 9 15 26 17 10 16 20 13 15 10 18 28 5 2 3 9 13 20 29 9 11 7 3 8 12 27 22 21 20 13 19 17 21 20
60 59 60 63 62 48 23 15 15 18 28 29 17 16 14 16 13 18 8 9 28 10 9 12 7 12 12 2 5 8 4 5 5 11 16 21 28 24 21 24 24 17 15 17
53 54 52 54 59 57 21 30 19 18 22 12 14 13 16 17 16 16 28 5 9 19 14 11 27 25 13 5 3 8 14 11 9 14 19 19 17 10 13 16 19 10 13 19
50 48 49 45 49 53 49 35 20 14 10 15 19 24 24 21 13 10 21 28 10 14 18 21 22 28 20 23 23 24 13 12 9 9 10 17 10 28 17 9 28 30 20 32
52 50 46 44 41 44 49 41 8 14 11 24 25 29 21 34 30 14 23 17 11 16 8 5 6 6 8 12 12 16 11 8 4 6 2 10 11 16 15 25 12 31 27 30
53 51 44 41 41 42 44 24 7 17 16 5 39 23 27 8 12 14 35 31 26 22 5 4 6 6 9 7 8 13 19 10 9 5 7 10 8 30 47 25 6 30 36 34
52 46 41 38 39 39 42 20 4 5 14 19 44 15 15 32 29 7 8 30 9 14 4 6 6 8 6 7 7 8 6 8 4 2 4 3 10 36 34 7 6 33 28 25
48 43 40 37 37 38 35 18 13 11 12 31 21 24 26 25 30 7 27 19 19 11 10 7 8 9 6 8 15 8 8 5 3 2 7 7 13 7 6 2 15 20 30 30
43 41 37 37 37 37 37 27 7 8 24 22 23 5 11 16 16 15 14 12 24 17 8 8 7 4 8 8 5 11 5 5 3 1 5 5 6 4 5 13 22 25 28 37
38 37 36 38 38 36 38 39 10 13 12 27 16 10 7 12 13 20 9 16 16 10 7 5 5 12 7 7 7 6 4 11 4 7 9 16 15 4 12 30 41 41 42 41
36 38 38 38 35 36 40 28 12 9 13 8 5 6 3 7 8 13 12 13 17 11 15 12 7 6 18 5 8 7 8 5 11 10 17 31 10 38 42 47 41 44 43 48
42 39 37 29 28 30 18 4 14 14 5 12 23 24 4 6 7 9 12 16 18 10 9 7 4 7 6 7 7 5 9 4 6 5 28 24 37 50 52 47 42 44 51 54
41 34 29 25 19 3 6 12 9 12 6 7 6 2 37 29 4 5 11 17 15 5 13 11 10 5 5 5 4 4 32 32 33 14 38 44 52 52 59 66 62 61 51 46
35 28 23 14 6 12 3 2 5 9 10 6 1 15 10 7 39 13 3 11 15 15 11 13 14 8 12 5 3 25 33 30 29 39 53 45 48 61 63 63 59 57 64 65
24 16 14 17 15 9 10 6 5 7 5 10 4 6 10 13 25 2 9 4 10 7 8 15 10 16 8 5 21 28 28 26 27 40 41 43 55 62 65 61 54 49 51 54
12 9 9 8 6 5 7 8 12 15 9 10 4 2 2 8 15 10 7 5 4 2 8 5 6 6 8 11 20 28 28 21 26 40 45 58 53 59 62 68 65 44 43 39
7 9 5 1 7 11 9 4 3 7 2 7 7 13 3 3 7 6 4 3 5 5 2 5 6 6 14 18 21 19 23 22 31 49 55 62 60 59 60 58 59 43 41 47
3 4 7 9 13 3 2 5 7 5 3 4 12 21 3 3 4 3 5 3 2 5 2 2 5 5 4 14 22 22 19 22 29 34 36 43 48 50 55 59 53 46 44 27
16 12 12 5 1 9 5 6 7 9 5 12 10 4 7 4 2 2 3 5 1 4 7 3 5 5 12 17 21 25 18 21 28 31 38 42 49 50 52 58 57 59 57 53
11 8 7 6 8 4 5 3 3 1 4 3 11 4 3 4 6 7 1 2 3 14 5 5 5 14 15 15 17 14 17 19 25 27 31 38 44 46 49 50 59 63 61 64
4 8 11 7 6 6 6 9 6 3 11 13 12 6 1 3 5 1 5 3 2 2 4 6 5 10 19 16 15 9 17 19 22 26 27 34 36 39 44 49 45 51 61 64
8 10 6 7 10 8 15 15 16 13 15 16 9 4 1 3 3 4 6 3 3 4 5 6 21 18 14 11 9 11 12 16 19 22 25 26 30 41 44 45 53 60 58 59
7 11 10 17 10 7 7 7 18 14 15 13 7 3 5 2 3 4 6 4 2 5 10 29 25 20 15 14 11 12 12 14 16 18 21 24 28 32 40 47 51 54 59 64
8 12 18 30 30 10 8 15 15 12 13 4 1 4 6 3 5 6 4 1 9 35 36 27 19 17 16 13 13 12 11 13 16 18 20 21 27 31 29 31 34 38 46 51
Wind_Direction_850mb
342 342 343 348 344 340 344 1 308 201 172 150 217 225 246 263 280 203 176 239 214 231 295 337 351 121 72 58 122 102 75 111 66 248 300 310 207 164 121 111 300 339 186 288
343 344 342 345 352 348 339 331 273 190 197 247 265 264 258 301 23 18 122 284 294 279 338 341 307 4 97 81 63 71 37 54 36 337 332 321 26 46 28 136 139 215 184 255
343 345 344 343 347 350 334 320 321 350 338 9 7 1 342 336 344 88 75 296 326 302 282 250 2 339 114 123 114 122 101 112 149 191 252 300 298 275 237 192 163 233 226 255
339 343 345 346 349 354 357 358 345 18 329 341 317 297 313 307 307 294 64 9 297 306 264 165 280 297 278 109 143 84 102 167 248 287 292 304 298 301 302 234 221 221 244 235
334 338 342 350 355 3 50 24 358 334 298 298 309 303 259 281 360 11 49 47 292 301 36 17 322 52 24 24 283 107 85 187 214 274 277 279 285 286 280 282 288 277 254 249
333 337 338 348 357 6 15 347 332 313 287 311 312 342 340 5 8 337 337 350 341 25 358 337 332 335 164 153 172 176 145 170 186 239 246 268 278 272 290 331 24 13 48 353
335 334 339 342 350 1 356 350 336 295 303 318 341 6 12 351 359 339 326 316 2 22 0 359 347 329 318 192 253 169 173 200 190 226 261 263 290 14 8 22 45 23 13 17
337 332 336 341 339 345 353 351 313 317 315 324 341 357 335 332 351 331 244 103 84 360 32 55 340 298 286 285 278 45 62 120 100 99 341 302 331 10 2 339 43 18 7 7
338 338 339 337 338 338 349 3 20 291 293 279 325 354 2 348 356 342 24 26 30 36 4 42 225 240 271 249 108 67 54 39 115 141 143 232 353 340 338 332 245 9 6 7
342 342 340 334 337 337 344 352 323 351 293 291 343 7 6 6 6 330 35 343 331 33 346 307 262 268 287 297 129 300 348 31 308 79 180 153 352 320 306 256 294 344 352 356
340 339 340 334 335 337 342 26 36 284 295 291 338 12 17 6 11 10 331 345 6 6 26 24 356 33 12 80 47 11 54 328 352 276 250 228 332 360 11 239 310 310 313 318
336 340 336 334 332 330 330 337 276 222 255 255 321 345 25 24 17 3 347 57 23 18 30 14 4 312 22 63 72 39 58 14 328 42 280 164 258 214 324 308 291 301 302 316
335 333 328 330 327 322 322 327 326 221 271 311 276 283 142 25 15 26 24 34 16 8 12 299 349 83 339 30 54 153 98 357 21 319 52 339 180 252 336 325 297 298 302 299
338 328 326 323 321 320 317 313 163 167 307 274 77 123 123 63 9 40 49 37 6 329 37 63 51 60 19 70 127 97 214 2 324 298 15 353 348 326 325 321 302 302 302 304
334 327 324 322 319 321 334 76 164 122 55 341 313 350 113 92 85 36 70 15 353 328 106 66 41 69 57 102 98 41 349 45 36 273 344 323 319 325 325 321 322 316 309 302
333 331 325 317 315 7 64 50 81 134 71 298 291 243 244 284 211 65 46 37 35 348 92 120 92 90 65 74 85 17 50 27 8 338 354 338 329 322 313 313 309 302 300 300
339 338 333 328 171 139 2 134 158 163 190 245 208 330 301 229 241 156 93 81 50 37 119 76 120 113 95 78 97 43 28 19 17 350 341 337 329 320 316 315 307 296 282 286
352 16 58 94 104 71 30 33 187 188 249 255 124 222 302 336 350 315 156 101 144 32 134 90 84 139 109 75 52 36 27 7 358 354 347 328 323 327 332 331 318 304 296 292
22 44 90 112 30 27 276 320 309 290 260 310 303 192 222 316 225 175 117 30 78 310 62 75 53 46 57 46 39 57 36 27 352 347 350 350 348 346 346 351 343 316 308 297
322 354 9 182 226 302 319 327 1 10 267 291 264 320 250 13 283 77 72 351 165 112 107 128 87 92 83 59 81 53 29 21 2 3 359 355 349 356 360 355 357 354 323 313
290 253 269 282 297 290 248 245 158 253 257 269 267 271 15 228 28 114 195 212 94 87 131 98 150 83 72 65 75 43 29 20 5 16 19 17 15 10 13 16 20 28 25 13
343 304 294 304 231 232 242 148 197 214 198 191 247 114 9 134 125 20 322 165 161 120 178 157 89 103 59 81 58 32 20 15 7 16 26 27 30 28 31 34 36 40 49 56
337 342 325 228 240 13 244 34 59 340 222 95 29 181 192 87 243 172 337 180 97 147 202 86 84 74 78 71 40 22 17 11 13 24 26 33 33 32 37 40 43 46 49 54
355 262 307 219 235 238 194 119 144 53 34 359 343 15 254 50 56 5 336 112 195 343 22 81 133 87 94 64 36 19 11 18 24 31 35 32 31 37 45 46 50 55 51 52
271 272 247 242 293 19 95 94 83 32 22 4 1 41 228 175 184 97 49 266 56 61 77 117 119 113 92 80 23 16 23 33 38 38 50 42 42 48 52 54 56 58 59 57
246 243 272 302 305 134 42 102 76 25 358 343 266 213 71 4 349 219 64 71 299 81 102 126 129 115 105 91 52 61 60 57 45 50 59 58 56 56 55 55 55 54 52 52
249 244 265 270 250 224 6 70 59 26 331 273 284 61 50 270 324 64 93 118 116 124 116 130 134 127 108 90 96 86 71 60 74 79 73 60 61 52 41 41 50 53 53 49